This is the latest recevied weather packets stored in our database for station/object NT9G. If no packets are shown the sender has not sent any weather packets the latest 10 day(s).
| Time | Temp. | Humidity | Pressure | Rain* | Wind** | Luminosity | Snow |
|---|---|---|---|---|---|---|---|
| 1777039169 | 18.33° C | 82% | 1006.7 hPa | 0.51 mm | - | - | - |
| 1777038869 | 17.78° C | 83% | 1006.7 hPa | 0.51 mm | - | - | - |
| 1777038569 | 17.78° C | 85% | 1006.6 hPa | 0.51 mm | - | - | - |
| 1777038268 | 17.78° C | 87% | 1006.5 hPa | 0.51 mm | - | - | - |
| 1777037968 | 17.78° C | 89% | 1006.4 hPa | 0.51 mm | - | - | - |
| 1777037668 | 17.78° C | 90% | 1006.3 hPa | 0.51 mm | - | - | - |
| 1777037368 | 17.22° C | 91% | 1006.1 hPa | 0.51 mm | - | - | - |
| 1777037067 | 17.22° C | 91% | 1006 hPa | 0.51 mm | - | - | - |
| 1777036767 | 17.22° C | 91% | 1005.8 hPa | 0.51 mm | - | - | - |
| 1777036467 | 17.22° C | 92% | 1005.7 hPa | 0.51 mm | - | - | - |
| 1777036166 | 17.22° C | 92% | 1005.7 hPa | 0.51 mm | - | - | - |
| 1777035866 | 17.22° C | 92% | 1005.8 hPa | 0.51 mm | - | - | - |
| 1777035566 | 17.22° C | 91% | 1005.9 hPa | 0.51 mm | - | - | - |
| 1777035265 | 17.22° C | 94% | 1006 hPa | 0.51 mm | - | - | - |
| 1777034965 | 17.22° C | 96% | 1006 hPa | 0.51 mm | - | - | - |
| 1777034664 | 16.67° C | 96% | 1005.9 hPa | 0.25 mm | - | - | - |
| 1777034364 | 16.67° C | 97% | 1005.9 hPa | 0.25 mm | - | - | - |
| 1777034064 | 16.67° C | 95% | 1005.9 hPa | 0.25 mm | - | - | - |
| 1777033763 | 16.67° C | 96% | 1005.8 hPa | 0.25 mm | - | - | - |
| 1777033463 | 16.67° C | 97% | 1005.6 hPa | 0.25 mm | - | - | - |
| 1777033163 | 16.11° C | 96% | 1005.2 hPa | 0.25 mm | - | - | - |
| 1777032860 | 16.11° C | 96% | 1005 hPa | 0.25 mm | - | - | - |
| 1777032560 | 15.56° C | 95% | 1005 hPa | 0.25 mm | - | - | - |
| 1777032260 | 15.56° C | 94% | 1005.1 hPa | 0.25 mm | - | - | - |
| 1777031959 | 15.56° C | 92% | 1004.9 hPa | 0.25 mm | - | - | - |
* Rain since midnight (hover to see other rain measurements)
** Current wind speed in m/s (hover to see current wind gust speed)